Location: Houghton
(47.1220°N, 88.5690°W)
Time: 13:55:46
(UTC-05:00)

OTV 5 (USA 277) - Visible Passes

Search period start: 13 December 2017 00:00
Search period end: 23 December 2017 00:00
Orbit: 404 x 417 km, 43.0° (Epoch: 07 September)

Date Brightness Start Highest point End Pass type
(mag) Time Alt. Az. Time Alt. Az. Time Alt. Az.
13 Dec ? 18:11:43 10° WSW 18:14:42 29° SSW 18:17:40 10° SE visible
13 Dec ? 19:50:45 10° SW 19:51:20 10° SSW 19:51:34 10° SSW visible
14 Dec ? 18:58:34 10° WSW 19:00:28 14° SSW 19:02:22 10° S visible
15 Dec ? 18:07:08 10° WSW 18:09:35 19° SSW 18:12:02 10° SSE visible
17 Dec ? 18:03:52 10° SW 18:04:21 10° SSW 18:04:50 10° SSW visible
